CW9688 Weather Reports


time (UTC)temp
F
wind
direction
speed
knots
gust
knots
rain 1hr
in
rain 24hr
in
rain mn
in
humidity
%
barometer
mb
20260508014304 62 257 3.5 6.1 0.00 0.00 0.00 40 1011.3
20260508013804 63 324 0.9 1.7 0.00 0.00 0.00 39 1011.3
20260508012804 63 35 3.5 10.4 0.00 0.00 0.00 38 1011.3
20260508012307 64 26 2.6 7.8 0.00 0.00 0.00 37 1011.3
20260508011804 64 5 4.3 11.3 0.00 0.00 0.00 35 1011.3
20260508010804 66 30 6.1 10.4 0.00 0.00 0.00 29 1011.3
20260508010304 66 33 6.1 11.3 0.00 0.00 0.00 28 1011.3
20260508005804 66 2 4.3 10.4 0.00 0.00 0.00 27 1011.3
20260508005306 67 14 4.3 11.3 0.00 0.00 0.00 28 1011.3
20260508002804 68 179 0.0 1.7 0.00 0.00 0.00 24 1011.3
20260507234304 70 51 3.5 5.2 0.00 0.00 0.00 24 1011.3
20260507232803 71 295 6.1 11.3 0.00 0.00 0.00 23 1011.3
20260507231304 72 287 3.5 7.0 0.00 0.00 0.00 22 1011.3
20260507230804 71 325 4.3 7.8 0.00 0.00 0.00 25 1011.3
20260507225306 71 263 7.8 13.0 0.00 0.00 0.00 22 1011.3
20260507224804 71 307 7.8 12.2 0.00 0.00 0.00 23 1011.3
20260507223804 72 308 6.1 12.2 0.00 0.00 0.00 25 1011.3
20260507223304 72 277 6.1 13.0 0.00 0.00 0.00 25 1011.3
20260507222306 71 265 6.1 11.3 0.00 0.00 0.00 24 1011.3
20260507221303 71 277 6.1 13.0 0.00 0.00 0.00 26 1011.3
20260507220803 70 247 9.6 17.4 0.00 0.00 0.00 24 1011.3
20260507215803 71 271 10.4 18.2 0.00 0.00 0.00 23 1011.3
20260507214803 71 262 7.8 15.6 0.00 0.00 0.00 24 1011.3
20260507214304 72 278 10.4 18.2 0.00 0.00 0.00 24 1011.3
20260507213804 72 285 7.8 15.6 0.00 0.00 0.00 23 1011.3
20260507212804 73 276 6.1 14.8 0.00 0.00 0.00 24 1011.3
20260507212307 72 297 8.7 15.6 0.00 0.00 0.00 25 1011.3
20260507205804 71 287 7.8 17.4 0.00 0.00 0.00 24 1011.3
20260507205306 69 242 9.6 17.4 0.00 0.00 0.00 25 1011.3
20260507204804 69 242 7.0 17.4 0.00 0.00 0.00 25 1011.3
20260507204304 71 248 7.8 13.0 0.00 0.00 0.00 26 1011.3
20260507202306 70 301 2.6 11.3 0.00 0.00 0.00 26 1011.3
20260507201304 70 230 6.1 10.4 0.00 0.00 0.00 27 1011.3
20260507200303 69 188 1.7 15.6 0.00 0.00 0.00 27 1011.3
20260507195803 69 294 7.8 11.3 0.00 0.00 0.00 26 1011.3
20260507194803 70 214 7.0 13.0 0.00 0.00 0.00 26 1011.3
20260507194303 69 257 7.8 13.0 0.00 0.00 0.00 26 1011.3
20260507193304 68 276 10.4 18.2 0.00 0.00 0.00 27 1011.3
20260507192803 68 252 9.6 17.4 0.00 0.00 0.00 27 1011.3
20260507191804 68 277 6.1 13.9 0.00 0.00 0.00 28 1011.3
20260507190803 68 271 5.2 17.4 0.00 0.00 0.00 29 1011.3
20260507185804 67 300 6.1 12.2 0.00 0.00 0.00 31 1011.3
20260507184804 66 247 6.1 11.3 0.00 0.00 0.00 32 1011.3
20260507183804 64 249 5.2 15.6 0.00 0.00 0.00 33 1011.3
20260507182804 64 302 5.2 13.9 0.00 0.00 0.00 34 1011.3
20260507182306 63 297 7.0 12.2 0.00 0.00 0.00 33 1011.3
20260507181804 63 256 6.1 13.9 0.00 0.00 0.00 34 1011.3
20260507180804 63 255 7.8 13.0 0.00 0.00 0.00 32 1011.3
20260507180304 63 264 8.7 14.8 0.00 0.00 0.00 33 1011.3
20260507175306 63 246 7.8 13.9 0.00 0.00 0.00 32 1011.3
20260507174304 63 247 6.1 13.0 0.00 0.01 0.00 34 1011.3
20260507173804 62 214 4.3 10.4 0.00 0.01 0.00 36 1011.3
20260507172307 62 164 2.6 6.1 0.00 0.01 0.00 36 1011.3
20260507171804 63 194 2.6 7.0 0.00 0.01 0.00 36 1011.3
20260507171303 62 239 2.6 6.1 0.00 0.01 0.00 35 1011.3
20260507165803 62 199 3.5 6.1 0.00 0.02 0.00 36 1011.3
20260507164804 62 224 3.5 10.4 0.00 0.02 0.00 36 1011.3
20260507163304 62 261 6.1 13.0 0.00 0.03 0.00 35 1011.3
20260507161304 62 222 4.3 10.4 0.00 0.03 0.00 40 1011.3
20260507160804 61 187 5.2 11.3 0.00 0.04 0.00 41 1011.3
20260507160304 60 214 4.3 10.4 0.00 0.04 0.00 42 1011.3
20260507155804 59 199 4.3 7.8 0.00 0.04 0.00 45 1011.3
20260507155306 58 202 3.5 7.8 0.00 0.04 0.00 44 1011.3
20260507153303 55 184 5.2 8.7 0.00 0.05 0.00 45 1011.3
20260507151804 53 194 2.6 4.3 0.00 0.06 0.00 47 1011.3
20260507145306 51 190 4.3 7.0 0.00 0.07 0.00 50 1011.3
20260507143804 49 184 5.2 8.7 0.00 0.07 0.00 54 1011.3
20260507143305 49 186 5.2 10.4 0.00 0.07 0.00 54 1011.3
20260507142306 48 179 5.2 7.8 0.00 0.07 0.00 56 1011.3
20260507141305 47 154 2.6 5.2 0.00 0.07 0.00 56 1011.3
20260507140805 47 178 4.3 6.1 0.00 0.07 0.00 56 1011.3
20260507140305 46 183 4.3 5.2 0.00 0.07 0.00 58 1011.3
20260507135306 45 184 3.5 7.0 0.00 0.07 0.00 60 1011.3
20260507134804 44 169 5.2 7.0 0.00 0.07 0.00 60 1011.3
20260507134305 44 264 4.3 6.1 0.00 0.07 0.00 61 1011.3
20260507131305 41 185 2.6 6.1 0.00 0.07 0.00 66 1011.3
20260507130805 40 195 2.6 7.0 0.00 0.07 0.00 66 1011.3
20260507125805 39 189 1.7 5.2 0.00 0.07 0.00 68 1011.3
20260507125306 39 190 2.6 4.3 0.00 0.07 0.00 68 1011.3
20260507124805 38 197 2.6 5.2 0.00 0.07 0.00 68 1011.3
20260507122805 37 200 1.7 2.6 0.00 0.07 0.00 70 1011.3
20260507121305 37 185 4.3 6.1 0.00 0.07 0.00 70 1011.3
20260507120804 37 197 1.7 6.1 0.00 0.07 0.00 70 1011.3
20260507114806 37 180 2.6 5.2 0.00 0.07 0.00 69 1011.3
20260507114305 37 182 2.6 5.2 0.00 0.07 0.00 69 1011.3
20260507113304 37 198 4.3 7.8 0.00 0.07 0.00 68 1011.3
20260507112805 37 201 4.3 7.0 0.00 0.07 0.00 68 1011.3
20260507112307 37 192 4.3 7.8 0.00 0.07 0.00 68 1011.3
20260507105805 37 192 6.1 12.2 0.00 0.07 0.00 69 1011.3
20260507104805 36 190 4.3 6.1 0.00 0.07 0.00 70 1011.3
20260507104304 36 202 2.6 6.1 0.00 0.07 0.00 71 1011.3
20260507102306 37 181 4.3 7.0 0.00 0.07 0.00 69 1011.3
20260507101805 37 188 5.2 8.7 0.00 0.07 0.00 68 1011.3
20260507095805 38 185 6.1 10.4 0.00 0.07 0.00 68 1011.3
20260507094805 37 200 4.3 8.7 0.00 0.07 0.00 68 1011.3
20260507094305 37 172 5.2 8.7 0.00 0.07 0.00 70 1011.3
20260507092307 37 217 3.5 6.1 0.00 0.07 0.00 71 1011.3
20260507091805 37 211 4.3 7.0 0.00 0.07 0.00 71 1011.3
20260507090805 37 181 5.2 8.7 0.00 0.07 0.00 72 1011.3
20260507085805 36 188 5.2 10.4 0.00 0.07 0.00 73 1011.3
20260507085306 36 187 5.2 8.7 0.00 0.07 0.00 74 1011.3
20260507084805 36 197 4.3 8.7 0.00 0.08 0.00 75 1011.3
20260507083305 35 186 5.2 8.7 0.00 0.08 0.00 77 1011.3
20260507082805 35 194 4.3 7.8 0.00 0.08 0.00 78 1011.3
20260507082306 35 181 4.3 7.8 0.00 0.08 0.00 78 1011.3
20260507081306 35 193 4.3 6.1 0.00 0.08 0.00 79 1011.3
20260507080805 35 182 3.5 7.0 0.00 0.08 0.00 79 1011.3
20260507075805 35 187 4.3 7.0 0.00 0.08 0.00 79 1011.3
20260507073805 35 189 4.3 8.7 0.00 0.09 0.00 80 1011.3
20260507073305 35 185 5.2 7.8 0.00 0.09 0.00 80 1011.3
20260507071805 35 184 5.2 10.4 0.00 0.10 0.00 82 1011.3
20260507071304 35 179 4.3 7.8 0.00 0.11 0.00 83 1011.3
20260507064805 34 182 3.5 6.1 0.00 0.12 0.00 84 1011.8
20260507064305 35 178 4.3 7.0 0.00 0.12 0.00 84 1011.8
20260507063804 35 182 4.3 7.0 0.00 0.12 0.00 84 1011.8
20260507063305 35 174 4.3 7.0 0.00 0.13 0.00 84 1011.8
20260507062805 35 185 4.3 7.0 0.00 0.13 0.00 84 1011.8
20260507062306 35 183 4.3 7.0 0.00 0.13 0.00 84 1011.8
20260507061305 35 200 4.3 6.1 0.00 0.13 0.00 85 1011.8
20260507060816 35 189 3.5 6.1 0.00 0.13 0.00 85 1011.8
20260507052804 32 182 3.5 6.1 0.00 0.14 0.13 91 1011.8
20260507052306 32 191 1.7 2.6 0.00 0.14 0.13 91 1011.8
20260507051305 32 176 1.7 2.6 0.00 0.16 0.13 91 1011.8
20260507045804 31 176 0.0 0.0 0.00 0.17 0.13 91 1011.8
20260507045306 31 176 0.0 0.9 0.00 0.17 0.13 90 1011.8
20260507044805 32 176 0.0 0.9 0.00 0.18 0.13 90 1011.8
20260507043805 32 176 0.0 0.0 0.00 0.18 0.13 90 1011.8
20260507043304 32 176 0.0 0.0 0.00 0.18 0.13 90 1011.8
20260507042307 33 176 0.9 1.7 0.00 0.19 0.13 90 1011.8
20260507041305 33 176 0.9 1.7 0.00 0.20 0.13 90 1011.8
20260507040305 32 176 0.9 1.7 0.00 0.20 0.13 89 1011.8
20260507035306 33 176 0.0 0.0 0.00 0.21 0.13 89 1011.8
20260507034304 33 176 0.0 0.0 0.00 0.22 0.13 88 1011.8
20260507032306 33 176 0.0 0.9 0.00 0.23 0.13 86 1011.8
20260507031305 34 176 0.0 0.0 0.00 0.23 0.13 85 1011.8
20260507030804 34 176 0.0 0.0 0.00 0.23 0.13 85 1011.8
20260507025306 35 176 0.0 0.0 0.00 0.24 0.13 82 1011.8
20260507023305 36 166 0.0 1.7 0.00 0.26 0.13 79 1011.8
20260507022804 36 166 0.9 1.7 0.00 0.26 0.13 78 1011.8
20260507022306 36 166 0.0 1.7 0.00 0.27 0.13 78 1011.8
20260507020805 37 166 0.9 2.6 0.00 0.31 0.13 75 1011.8
20260507020304 38 166 0.9 2.6 0.00 0.33 0.13 74 1011.8
20260507015306 38 157 1.7 4.3 0.00 0.37 0.13 73 1011.8